Location: Bourg-d�Oueil
(42.8588°N, 0.4991°E)
Time: 02:46:22
(UTC+00:00)

Cosmos 1503 Rocket - Pass Details

Date: 16 June 2021
Orbit: 752 x 791 km, 74.0° (Epoch: 04 August)

Event Time Altitude Azimuth Distance (km) Brightness Sun altitude
Rises 23:10:29 0° 341° (NNW) 3,297 8.7 -22.8°
Reaches altitude 10° 23:12:54 10° 343° (NNW) 2,365 7.6 -22.9°
Maximum altitude 23:18:17 74° 69° (ENE) 825 4.1 -23.1°
Enters shadow 23:19:30 53° 136° (SE) 964 4.1 -23.1°
